When you browse on this site, cookies collect data to enhance your experience and personalize the content and advertising you see.
Visit our Privacy Policy to learn more. By continuing to use the site, you agree to this use of cookies and data.
  • In Sweden
  • List of Countries
  • For 7 days
  • Water Temperature
  • Weather Map
  • Weather Widgets
  • user-avatar
    Login

    Hourly Weather Boa Vista

    Today, 7 April, Tuesday

    Time Temperature Precipitation Wind Pressure Humidity
    00:00 +32°C° 0.3 mm 4 mps 752 mmHg 68%
    01:00 +30°C° 0.3 mm 4 mps 751 mmHg 71%
    02:00 +29°C° 0 mm 4 mps 751 mmHg 75%
    03:00 +29°C° 1.4 mm 4 mps 751 mmHg 77%
    04:00 +28°C° 1.4 mm 4 mps 752 mmHg 79%
    05:00 +28°C° 1.4 mm 4 mps 752 mmHg 81%
    06:00 +28°C° 3.3 mm 3 mps 753 mmHg 82%
    07:00 +28°C° 3.3 mm 3 mps 754 mmHg 83%
    08:00 +28°C° 0 mm 3 mps 755 mmHg 83%
    09:00 +30°C° 0.4 mm 3 mps 754 mmHg 78%
    10:00 +32°C° 0.4 mm 4 mps 754 mmHg 73%
    11:00 +33°C° 0.4 mm 4 mps 754 mmHg 68%
    12:00 +33°C° 0.1 mm 3 mps 753 mmHg 66%
    13:00 +34°C° 0.1 mm 3 mps 752 mmHg 63%
    14:00 +35°C° 0.1 mm 2 mps 751 mmHg 60%
    15:00 +35°C° 0 mm 2 mps 750 mmHg 60%
    16:00 +35°C° 0 mm 2 mps 750 mmHg 60%
    17:00 +35°C° 0 mm 2 mps 749 mmHg 59%
    18:00 +34°C° 0 mm 2 mps 750 mmHg 65%
    19:00 +31°C° 0 mm 2 mps 751 mmHg 70%
    20:00 +30°C° 0 mm 2 mps 751 mmHg 75%
    21:00 +30°C° 0.4 mm 1 mps 752 mmHg 77%
    22:00 +29°C° 0.4 mm 1 mps 752 mmHg 80%
    23:00 +29°C° 0.4 mm 1 mps 752 mmHg 82%

    Tomorrow, 8 April, Wednesday

    Time Temperature Precipitation Wind Pressure Humidity
    00:00 +29°C° 1.2 mm 2 mps 752 mmHg 83%
    01:00 +28°C° 1.2 mm 2 mps 752 mmHg 83%
    02:00 +28°C° 1.2 mm 3 mps 751 mmHg 84%
    03:00 +28°C° 0.5 mm 3 mps 751 mmHg 84%
    04:00 +28°C° 0.5 mm 4 mps 751 mmHg 84%
    05:00 +27°C° 0.5 mm 5 mps 751 mmHg 84%
    06:00 +27°C° 0.9 mm 4 mps 752 mmHg 84%
    07:00 +27°C° 0.9 mm 4 mps 753 mmHg 84%
    08:00 +27°C° 0.9 mm 4 mps 753 mmHg 84%
    09:00 +28°C° 0.3 mm 4 mps 753 mmHg 81%
    10:00 +29°C° 0.3 mm 3 mps 753 mmHg 77%
    11:00 +30°C° 0.3 mm 3 mps 753 mmHg 74%
    12:00 +31°C° 0 mm 3 mps 753 mmHg 69%
    13:00 +32°C° 0 mm 2 mps 752 mmHg 64%
    14:00 +34°C° 0 mm 2 mps 751 mmHg 59%
    15:00 +34°C° 0 mm 2 mps 750 mmHg 59%
    16:00 +34°C° 0 mm 2 mps 750 mmHg 59%
    17:00 +34°C° 0 mm 2 mps 750 mmHg 59%
    18:00 +32°C° 0.3 mm 2 mps 750 mmHg 65%
    19:00 +30°C° 0.3 mm 2 mps 751 mmHg 72%
    20:00 +29°C° 0.3 mm 2 mps 752 mmHg 79%
    21:00 +29°C° 0.2 mm 2 mps 752 mmHg 80%
    22:00 +28°C° 0.2 mm 2 mps 752 mmHg 82%
    23:00 +28°C° 0.2 mm 1 mps 752 mmHg 84%

    Day after tomorrow, 9 April, Thursday

    Time Temperature Precipitation Wind Pressure Humidity
    00:00 +28°C° 0 mm 1 mps 752 mmHg 85%
    01:00 +27°C° 0 mm 1 mps 752 mmHg 86%
    02:00 +27°C° 0 mm 1 mps 751 mmHg 87%
    03:00 +27°C° 0.1 mm 1 mps 751 mmHg 87%
    04:00 +27°C° 0.1 mm 1 mps 751 mmHg 87%
    05:00 +27°C° 0.1 mm 1 mps 751 mmHg 86%
    06:00 +28°C° 0.1 mm 2 mps 752 mmHg 82%
    07:00 +29°C° 0.1 mm 2 mps 752 mmHg 78%
    08:00 +29°C° 0.1 mm 3 mps 753 mmHg 73%
    09:00 +32°C° 0 mm 4 mps 753 mmHg 65%
    10:00 +34°C° 0 mm 4 mps 753 mmHg 56%
    11:00 +36°C° 0 mm 5 mps 752 mmHg 48%
    12:00 +37°C° 0 mm 4 mps 751 mmHg 46%
    13:00 +37°C° 0 mm 4 mps 750 mmHg 44%
    14:00 +37°C° 0 mm 3 mps 749 mmHg 42%
    15:00 +37°C° 0 mm 3 mps 749 mmHg 42%
    16:00 +38°C° 0 mm 3 mps 748 mmHg 42%
    17:00 +38°C° 0 mm 3 mps 748 mmHg 42%
    18:00 +36°C° 0 mm 2 mps 749 mmHg 46%
    19:00 +34°C° 0 mm 2 mps 749 mmHg 51%
    20:00 +32°C° 0 mm 1 mps 750 mmHg 56%
    21:00 +31°C° 0 mm 2 mps 750 mmHg 57%
    22:00 +31°C° 0 mm 2 mps 751 mmHg 59%
    23:00 +30°C° 0 mm 2 mps 751 mmHg 60%

    10 April, Friday

    Time Temperature Precipitation Wind Pressure Humidity
    00:00 +30°C° 0 mm 2 mps 751 mmHg 63%
    01:00 +30°C° 0 mm 2 mps 751 mmHg 66%
    02:00 +29°C° 0 mm 2 mps 750 mmHg 68%
    03:00 +29°C° 0 mm 3 mps 751 mmHg 71%
    04:00 +28°C° 0 mm 3 mps 751 mmHg 73%
    05:00 +28°C° 0 mm 4 mps 751 mmHg 75%
    06:00 +29°C° 0 mm 4 mps 752 mmHg 72%
    07:00 +29°C° 0 mm 5 mps 752 mmHg 69%
    08:00 +30°C° 0 mm 5 mps 753 mmHg 66%
    09:00 +32°C° 0 mm 5 mps 753 mmHg 61%
    10:00 +34°C° 0 mm 5 mps 753 mmHg 56%
    11:00 +35°C° 0 mm 5 mps 753 mmHg 51%
    12:00 +36°C° 0.1 mm 5 mps 752 mmHg 48%
    13:00 +37°C° 0.1 mm 5 mps 751 mmHg 44%
    14:00 +39°C° 0.1 mm 5 mps 750 mmHg 41%
    15:00 +37°C° 0 mm 5 mps 750 mmHg 41%
    16:00 +37°C° 0 mm 4 mps 750 mmHg 41%
    17:00 +37°C° 0 mm 4 mps 750 mmHg 40%
    18:00 +35°C° 0 mm 4 mps 750 mmHg 48%
    19:00 +33°C° 0 mm 3 mps 751 mmHg 55%
    20:00 +31°C° 0 mm 3 mps 751 mmHg 62%
    21:00 +30°C° 0 mm 3 mps 752 mmHg 64%
    22:00 +30°C° 0 mm 2 mps 752 mmHg 67%
    23:00 +29°C° 0 mm 1 mps 753 mmHg 69%

    11 April, Saturday

    Time Temperature Precipitation Wind Pressure Humidity
    00:00 +29°C° 0 mm 1 mps 752 mmHg 71%
    01:00 +28°C° 0 mm 2 mps 752 mmHg 74%
    02:00 +28°C° 0 mm 2 mps 752 mmHg 76%
    03:00 +27°C° 0 mm 2 mps 752 mmHg 78%
    04:00 +27°C° 0 mm 1 mps 752 mmHg 80%
    05:00 +27°C° 0 mm 1 mps 753 mmHg 82%
    06:00 +28°C° 0 mm 2 mps 753 mmHg 76%
    07:00 +29°C° 0 mm 3 mps 754 mmHg 70%
    08:00 +30°C° 0 mm 4 mps 754 mmHg 63%
    09:00 +33°C° 0 mm 4 mps 754 mmHg 58%
    10:00 +34°C° 0 mm 4 mps 754 mmHg 52%
    11:00 +36°C° 0 mm 4 mps 754 mmHg 46%
    12:00 +36°C° 0 mm 4 mps 753 mmHg 45%
    13:00 +37°C° 0 mm 3 mps 752 mmHg 43%
    14:00 +37°C° 0 mm 3 mps 751 mmHg 41%
    15:00 +37°C° 0 mm 2 mps 751 mmHg 42%
    16:00 +36°C° 0 mm 2 mps 751 mmHg 43%
    17:00 +36°C° 0 mm 2 mps 750 mmHg 43%
    18:00 +35°C° 0 mm 2 mps 751 mmHg 47%
    19:00 +34°C° 0 mm 2 mps 751 mmHg 51%
    20:00 +31°C° 0 mm 3 mps 752 mmHg 54%
    21:00 +31°C° 0 mm 3 mps 752 mmHg 58%
    22:00 +30°C° 0 mm 2 mps 752 mmHg 63%
    23:00 +29°C° 0 mm 2 mps 753 mmHg 67%

    12 April, Sunday

    Time Temperature Precipitation Wind Pressure Humidity
    00:00 +29°C° 0 mm 2 mps 753 mmHg 67%
    01:00 +29°C° 0 mm 2 mps 752 mmHg 68%
    02:00 +28°C° 0 mm 2 mps 752 mmHg 68%
    03:00 +28°C° 0 mm 3 mps 752 mmHg 69%
    04:00 +28°C° 0 mm 3 mps 752 mmHg 70%
    05:00 +27°C° 0 mm 4 mps 752 mmHg 71%
    06:00 +28°C° 0 mm 5 mps 753 mmHg 68%
    07:00 +29°C° 0 mm 5 mps 754 mmHg 65%
    08:00 +29°C° 0 mm 6 mps 754 mmHg 62%
    09:00 +32°C° 0 mm 5 mps 754 mmHg 57%
    10:00 +33°C° 0 mm 5 mps 754 mmHg 51%
    11:00 +35°C° 0 mm 5 mps 754 mmHg 46%
    12:00 +36°C° 0 mm 5 mps 753 mmHg 42%
    13:00 +37°C° 0 mm 5 mps 752 mmHg 38%
    14:00 +38°C° 0 mm 4 mps 751 mmHg 33%
    15:00 +38°C° 0 mm 4 mps 751 mmHg 33%
    16:00 +38°C° 0 mm 4 mps 750 mmHg 33%
    17:00 +37°C° 0 mm 4 mps 750 mmHg 33%
    18:00 +36°C° 0 mm 4 mps 750 mmHg 37%
    19:00 +34°C° 0 mm 4 mps 751 mmHg 40%
    20:00 +33°C° 0 mm 4 mps 752 mmHg 43%
    21:00 +32°C° 0 mm 4 mps 752 mmHg 46%
    22:00 +32°C° 0 mm 4 mps 752 mmHg 49%
    23:00 +30°C° 0 mm 4 mps 753 mmHg 52%
    Show more